1518804001.0,3395,11.44,73348.0,-12.67,-13.97,-13.69,0,*5F
1518804002.23,3396,11.44,73350.3,-12.65,-13.93,-13.65,0,*56
1518804003.49,3397,11.44,73348.5,-12.65,-13.83,-13.65,0,*56
1518804004.76,3398,11.44,73350.0,-12.65,-13.83,-13.55,0,*5A
1518804006.02,3399,11.44,73352.8,-12.65,-13.83,-13.65,0,*58
1518804007.26,3400,11.44,73350.0,-12.65,-13.69,-13.55,0,*58
1518804008.5,3401,11.5,73352.0,-12.63,-13.65,-13.61,0,*54
1518804009.76,3402,11.44,73348.5,-12.65,-13.79,-13.69,0,*54
1518804011.02,3403,11.44,73348.3,-12.65,-13.83,-13.69,0,*50
1518804012.27,3404,11.44,73348.3,-12.65,-13.79,-13.69,0,*52
1518804013.56,3405,11.5,73352.0,-12.65,-13.83,-13.79,0,*57
1518804014.81,3406,11.5,73354.0,-12.65,-13.93,-13.79,0,*55
1518804016.04,3407,11.44,73348.5,-12.65,-13.93,-13.69,0,*55
1518804017.28,3408,11.5,73352.3,-12.63,-13.79,-13.73,0,*53
1518804018.55,3409,11.5,73352.8,-12.65,-13.79,-13.79,0,*5E
1518804019.81,3410,11.44,73350.3,-12.65,-13.93,-13.83,0,*57
1518804021.1,3411,11.5,73350.0,-12.65,-13.83,-13.83,0,*57
1518804022.33,3412,11.5,73352.0,-12.65,-13.93,-13.93,0,*54
1518804023.62,3413,11.5,73348.0,-12.65,-13.97,-13.97,0,*55
1518804024.85,3414,11.44,73346.8,-12.63,-14.15,-14.15,0,*54
1518804026.1,3415,11.44,73336.0,-12.65,-14.23,-14.33,0,*52
1518804027.34,3416,11.44,73336.5,-12.65,-14.23,-14.23,0,*50
1518804028.58,3417,11.44,73342.8,-12.65,-14.19,-14.11,0,*59
1518804029.84,3418,11.44,73342.3,-12.65,-13.97,-13.93,0,*5A
1518804031.11,3419,11.44,73344.3,-12.67,-13.83,-13.83,0,*5D
1518804032.36,3420,11.5,73346.3,-12.67,-13.79,-13.79,0,*57
1518804033.61,3421,11.44,73346.3,-12.65,-13.79,-13.69,0,*55
1518804034.89,3422,11.44,73350.0,-12.65,-13.79,-13.79,0,*57
1518804036.12,3423,11.44,73348.0,-12.65,-13.93,-13.69,0,*53
1518804037.38,3424,11.44,73350.8,-12.63,-13.87,-13.79,0,*56
1518804038.62,3425,11.44,73354.3,-12.63,-13.79,-13.73,0,*5C
1518804039.86,3426,11.44,73354.5,-12.63,-13.97,-13.65,0,*58
1518804041.1,3427,11.5,73362.3,-12.63,-13.87,-13.65,0,*58
1518804042.36,3428,11.5,73358.8,-12.65,-13.93,-13.83,0,*5C
1518804043.59,3429,11.5,73358.3,-12.63,-13.93,-13.79,0,*5E
1518804044.88,3430,11.5,73358.0,-12.65,-14.05,-13.83,0,*5D
1518804046.17,3431,11.44,73352.8,-12.65,-13.97,-13.83,0,*50
1518804047.38,3432,11.44,73356.8,-12.63,-13.73,-13.73,0,*50
1518804048.63,3433,11.5,73358.0,-12.63,-13.65,-13.61,0,*55
1518804049.87,3434,11.44,73356.3,-12.63,-13.65,-13.61,0,*52
1518804051.1,3435,11.44,73354.8,-12.65,-13.65,-13.55,0,*52
1518804052.31,3436,11.5,73362.8,-12.63,-13.65,-13.65,0,*54
1518804053.58,3437,11.44,73366.0,-12.63,-13.61,-13.61,0,*55
1518804054.82,3438,11.44,73364.8,-12.63,-13.73,-13.87,0,*51
1518804056.07,3439,11.44,73358.5,-12.65,-13.79,-13.93,0,*59
1518804057.31,3440,11.5,73360.5,-12.65,-14.11,-14.19,0,*5B
1518804058.56,3441,11.5,73362.0,-12.65,-14.19,-14.23,0,*5B
1518804059.8,3442,11.44,73356.3,-12.65,-14.19,-14.23,0,*58
1518804061.04,3443,11.44,73356.0,-12.65,-14.33,-14.33,0,*50
1518804062.31,3444,11.44,73350.0,-12.65,-14.37,-14.47,0,*50
1518804063.54,3445,11.44,73344.0,-12.65,-14.33,-14.37,0,*52
1518804064.78,3446,11.44,73346.5,-12.65,-14.11,-14.19,0,*5D
1518804066.05,3447,11.5,73350.5,-12.65,-13.97,-13.93,0,*50
1518804067.32,3448,11.44,73346.3,-12.67,-13.97,-13.97,0,*59
1518804068.59,3449,11.44,73346.3,-12.67,-13.97,-14.05,0,*54
1518804069.86,3450,11.44,73342.3,-12.67,-13.97,-14.05,0,*5C
1518804071.13,3451,11.44,73334.0,-12.67,-14.05,-14.05,0,*51
1518804072.37,3452,11.44,73336.8,-12.67,-14.01,-14.11,0,*53
1518804073.64,3453,11.44,73340.0,-12.67,-14.05,-13.97,0,*5F
1518804074.92,3454,11.5,73348.0,-12.67,-14.05,-13.97,0,*58
1518804076.13,3455,11.44,73344.5,-12.67,-14.11,-13.93,0,*58
1518804077.4,3456,11.5,73346.8,-12.67,-14.05,-13.83,0,*5F
1518804078.63,3457,11.44,73344.0,-12.67,-14.05,-13.93,0,*5F
1518804079.91,3458,11.44,73346.3,-12.67,-14.01,-13.97,0,*50
1518804081.14,3459,11.5,73342.0,-12.67,-13.79,-13.69,0,*58
1518804082.35,3460,11.5,73350.3,-12.67,-13.69,-13.55,0,*5C
1518804083.59,3461,11.44,73348.8,-12.67,-13.79,-13.55,0,*5C
1518804084.8,3462,11.44,73350.3,-12.67,-13.69,-13.55,0,*5E
1518804086.04,3463,11.5,73352.0,-12.67,-13.79,-13.55,0,*5E
1518804087.28,3464,11.5,73356.8,-12.67,-13.83,-13.65,0,*5F
1518804088.52,3465,11.5,73348.0,-12.67,-13.79,-13.55,0,*58
1518804089.73,3466,11.44,73340.5,-12.67,-13.69,-13.55,0,*5A
1518804090.97,3467,11.5,73340.3,-12.67,-13.73,-13.61,0,*57
1518804092.18,3468,11.44,73338.5,-12.67,-13.65,-13.55,0,*58
1518804093.4,3469,11.44,73350.0,-12.67,-13.65,-13.51,0,*5D
1518804094.61,3470,11.44,73346.0,-12.67,-13.55,-13.51,0,*56
1518804095.82,3471,11.44,73344.8,-12.67,-13.65,-13.51,0,*54
1518804097.03,3472,11.44,73348.3,-12.67,-13.65,-13.51,0,*57
1518804098.25,3473,11.5,73350.3,-12.67,-13.55,-13.51,0,*55
1518804099.46,3474,11.5,73348.8,-12.67,-13.55,-13.51,0,*52
1518804100.67,3475,11.44,73344.3,-12.67,-13.55,-13.51,0,*53
1518804101.9,3476,11.44,73348.0,-12.65,-13.55,-13.47,0,*55
1518804103.14,3477,11.5,73348.5,-12.65,-13.51,-13.47,0,*50
1518804104.37,3478,11.44,73350.3,-12.65,-13.51,-13.47,0,*5F
1518804105.61,3479,11.5,73350.3,-12.65,-13.51,-13.47,0,*5E
1518804106.85,3480,11.44,73346.8,-12.65,-13.51,-13.51,0,*5F
1518804108.09,3481,11.44,73346.0,-12.65,-13.51,-13.47,0,*59
1518804109.33,3482,11.5,73350.0,-12.65,-13.51,-13.47,0,*5A
1518804110.56,3483,11.5,73348.0,-12.63,-13.47,-13.33,0,*59
1518804111.82,3484,11.44,73346.8,-12.65,-13.47,-13.37,0,*5C
1518804113.08,3485,11.44,73344.5,-12.65,-13.47,-13.37,0,*5D
1518804114.34,3486,11.5,73350.5,-12.65,-13.51,-13.37,0,*59
1518804115.6,3487,11.44,73344.8,-12.65,-13.47,-13.37,0,*5F
1518804116.84,3488,11.44,73346.5,-12.63,-13.43,-13.33,0,*56
1518804118.1,3489,11.44,73342.8,-12.65,-13.47,-13.37,0,*51
1518804119.31,3490,11.5,73346.8,-12.63,-13.43,-13.43,0,*58
1518804120.58,3491,11.5,73344.5,-12.63,-13.33,-13.33,0,*59
1518804121.85,3492,11.44,73344.8,-12.63,-13.29,-13.33,0,*51
1518804123.11,3493,11.44,73346.5,-12.63,-13.33,-13.33,0,*5B
1518804124.35,3494,11.44,73340.8,-12.63,-13.29,-13.43,0,*50
1518804125.59,3495,11.44,73340.3,-12.63,-13.33,-13.43,0,*5A
1518804126.8,3496,11.44,73342.8,-12.63,-13.43,-13.43,0,*5E
1518804128.06,3497,11.44,73342.0,-12.59,-13.33,-13.33,0,*56
1518804129.33,3498,11.44,73342.5,-12.63,-13.33,-13.29,0,*5B
1518804130.58,3499,11.44,73340.8,-12.65,-13.47,-13.37,0,*50
1518804131.8,3500,11.44,73342.8,-12.63,-13.43,-13.43,0,*50
1518804133.03,3501,11.44,73342.5,-12.63,-13.33,-13.43,0,*56
1518804134.3,3502,11.44,73340.0,-12.63,-13.33,-13.33,0,*52
1518804135.54,3503,11.44,73340.8,-12.63,-13.29,-13.43,0,*5F
1518804136.77,3504,11.44,73338.8,-12.63,-13.33,-13.43,0,*53
1518804138.01,3505,11.5,73346.0,-12.63,-13.33,-13.43,0,*52
1518804139.25,3506,11.44,73338.8,-12.59,-13.33,-13.43,0,*58
1518804140.48,3507,11.44,73340.5,-12.59,-13.29,-13.47,0,*56
1518804141.71,3508,11.44,73346.5,-12.63,-13.33,-13.47,0,*5B
1518804142.95,3509,11.44,73344.5,-12.63,-13.33,-13.43,0,*5E
1518804144.18,3510,11.5,73346.5,-12.63,-13.33,-13.47,0,*52
1518804145.41,3511,11.44,73344.8,-12.63,-13.33,-13.47,0,*53
1518804146.65,3512,11.5,73346.8,-12.63,-13.33,-13.47,0,*50
1518804147.88,3513,11.44,73346.3,-12.63,-13.33,-13.47,0,*51
1518804149.12,3514,11.44,73342.0,-12.63,-13.43,-13.61,0,*55
1518804150.33,3515,11.5,73344.5,-12.59,-13.47,-13.73,0,*5A
1518804151.57,3516,11.44,73340.5,-12.59,-13.47,-13.61,0,*5A
1518804152.78,3517,11.44,73344.0,-12.59,-13.47,-13.65,0,*5F
1518804154.02,3518,11.44,73348.0,-12.59,-13.43,-13.61,0,*50
1518804155.23,3519,11.5,73348.3,-12.59,-13.47,-13.65,0,*51
1518804156.44,3520,11.44,73344.0,-12.59,-13.47,-13.73,0,*5C
1518804157.68,3521,11.44,73332.8,-12.59,-13.51,-13.87,0,*51
1518804158.92,3522,11.5,73334.0,-12.59,-13.61,-13.93,0,*54
1518804160.16,3523,11.5,73340.5,-12.59,-13.51,-13.87,0,*53
1518804161.41,3524,11.44,73334.3,-12.59,-13.51,-13.87,0,*54
1518804162.66,3525,11.44,73338.3,-12.57,-13.55,-13.87,0,*5F
1518804163.91,3526,11.44,73338.8,-12.59,-13.73,-14.01,0,*5F
1518804165.15,3527,11.5,73342.3,-12.59,-13.73,-14.01,0,*5E
1518804166.39,3528,11.5,73344.3,-12.59,-13.79,-14.15,0,*5E
1518804167.63,3529,11.44,73344.0,-12.59,-13.79,-14.15,0,*5F
1518804168.87,3530,11.44,73344.5,-12.57,-13.73,-14.11,0,*57
1518804170.08,3531,11.44,73342.3,-12.63,-13.93,-14.29,0,*54
1518804171.33,3532,11.44,73340.5,-12.63,-14.01,-14.29,0,*5B
1518804172.58,3533,11.5,73344.8,-12.63,-14.01,-14.29,0,*5A
1518804173.82,3534,11.44,73344.5,-12.65,-14.11,-14.23,0,*50
1518804175.07,3535,11.44,73346.8,-12.63,-14.05,-14.29,0,*58
1518804176.32,3536,11.44,73342.5,-12.63,-14.05,-14.29,0,*5B
1518804177.56,3537,11.5,73342.3,-12.65,-14.11,-14.33,0,*52
1518804178.78,3538,11.44,73338.5,-12.63,-14.15,-14.19,0,*57
1518804180.01,3539,11.44,73340.5,-12.63,-14.15,-14.19,0,*56
1518804181.23,3540,11.44,73340.0,-12.63,-14.15,-14.19,0,*58
1518804182.46,3541,11.44,73344.0,-12.63,-14.15,-14.19,0,*59
1518804183.69,3542,11.44,73344.8,-12.65,-14.33,-14.33,0,*50
1518804184.91,3543,11.44,73348.0,-12.63,-14.19,-14.29,0,*54
1518804186.14,3544,11.44,73346.0,-12.63,-14.19,-14.29,0,*53
1518804187.36,3545,11.44,73346.3,-12.63,-14.19,-14.29,0,*52
1518804188.58,3546,11.44,73340.3,-12.63,-14.19,-14.29,0,*51
1518804189.82,3547,11.44,73340.5,-12.59,-14.29,-14.43,0,*56
1518804191.06,3548,11.44,73346.5,-12.63,-14.29,-14.47,0,*54
1518804192.29,3549,11.44,73350.0,-12.63,-14.33,-14.65,0,*5E
1518804193.53,3550,11.44,73350.0,-12.63,-14.33,-14.75,0,*57
1518804194.77,3551,11.44,73346.0,-12.63,-14.33,-14.75,0,*56
1518804196.01,3552,11.44,73344.8,-12.63,-14.33,-14.79,0,*59
1518804197.28,3553,11.5,73350.5,-12.63,-14.43,-14.79,0,*5F
1518804198.57,3554,11.44,73344.8,-12.65,-14.55,-14.83,0,*5C
1518804199.82,3555,11.5,73346.0,-12.59,-14.51,-15.07,0,*5B
1518804201.06,3556,11.5,73350.0,-12.63,-14.61,-15.01,0,*54
1518804202.27,3557,11.5,73348.8,-12.63,-14.65,-15.07,0,*57
1518804203.55,3558,11.44,73346.3,-12.65,-14.83,-15.25,0,*56
1518804204.81,3559,11.44,73348.0,-12.63,-14.79,-15.21,0,*50
1518804206.08,3560,11.44,73350.8,-12.63,-14.79,-15.21,0,*5A
1518804207.34,3561,11.44,73350.3,-12.65,-14.93,-15.25,0,*5D
1518804208.62,3562,11.44,73348.8,-12.65,-14.97,-15.35,0,*5B
1518804209.89,3563,11.44,73348.8,-12.63,-15.01,-15.39,0,*5E
1518804211.12,3564,11.44,73344.5,-12.63,-15.21,-15.67,0,*50
1518804212.34,3565,11.44,73348.5,-12.63,-15.29,-15.53,0,*5E
1518804213.63,3566,11.44,73348.8,-12.65,-15.35,-15.57,0,*52
1518804214.89,3567,11.44,73340.0,-12.65,-15.39,-15.67,0,*5C
1518804216.15,3568,11.44,73346.8,-12.65,-15.39,-15.67,0,*53
1518804217.44,3569,11.44,73346.5,-12.65,-15.39,-15.57,0,*51
1518804218.67,3570,11.44,73350.8,-12.65,-15.53,-15.67,0,*56
1518804219.93,3571,11.44,73354.5,-12.65,-15.57,-15.67,0,*53
1518804221.19,3572,11.44,73352.8,-12.65,-15.67,-15.57,0,*50
1518804222.45,3573,11.44,73342.5,-12.65,-15.71,-15.57,0,*56
1518804223.74,3574,11.44,73360.0,-12.65,-15.81,-15.43,0,*5B
1518804225.03,3575,11.44,73352.5,-12.65,-15.81,-15.43,0,*5A
1518804226.27,3576,11.44,73356.3,-12.67,-15.71,-15.35,0,*55
1518804227.55,3577,11.44,73354.8,-12.65,-15.81,-15.35,0,*59
1518804228.82,3578,11.5,73360.8,-12.65,-15.71,-15.35,0,*59
1518804230.06,3579,11.44,73354.3,-12.67,-15.57,-15.25,0,*5F
1518804231.3,3580,11.44,73356.8,-12.67,-15.53,-15.21,0,*59
1518804232.56,3581,11.44,73354.8,-12.67,-15.43,-15.21,0,*59
1518804233.8,3582,11.44,73354.8,-12.67,-15.39,-15.11,0,*54
1518804235.07,3583,11.44,73358.3,-12.65,-15.39,-15.07,0,*50
1518804236.33,3584,11.44,73352.3,-12.65,-15.35,-15.07,0,*5B
1518804237.59,3585,11.44,73358.3,-12.65,-15.35,-15.07,0,*5A
1518804238.85,3586,11.44,73354.5,-12.65,-15.35,-15.07,0,*59
1518804240.08,3587,11.44,73354.8,-12.67,-15.21,-15.07,0,*5F
1518804241.29,3588,11.44,73350.0,-12.67,-15.11,-15.11,0,*54
1518804242.5,3589,11.44,73354.0,-12.67,-15.07,-15.11,0,*52
1518804243.76,3590,11.44,73352.0,-12.65,-14.97,-15.07,0,*57
1518804245.04,3591,11.5,73358.3,-12.65,-14.79,-15.21,0,*52
1518804246.32,3592,11.44,73356.3,-12.65,-14.83,-15.25,0,*50
1518804247.54,3593,11.5,73354.0,-12.63,-14.89,-15.49,0,*57
1518804248.77,3594,11.44,73358.3,-12.65,-15.07,-15.67,0,*5D
1518804250.02,3595,11.44,73352.3,-12.67,-15.25,-15.85,0,*52
1518804251.26,3596,11.5,73352.5,-12.67,-15.25,-15.81,0,*55
1518804252.53,3597,11.44,73352.3,-12.67,-15.39,-15.81,0,*59
1518804253.75,3598,11.44,73354.3,-12.67,-15.53,-15.71,0,*55
1518804254.99,3599,11.44,73352.3,-12.67,-15.53,-15.81,0,*5B
1518804256.26,3600,11.44,73352.0,-12.67,-15.57,-15.81,0,*5C
1518804257.52,3601,11.44,73350.5,-12.67,-15.57,-15.81,0,*5D
1518804258.76,3602,11.44,73354.3,-12.67,-15.71,-15.89,0,*52
1518804259.97,3603,11.44,73356.3,-12.67,-15.67,-15.99,0,*55
1518804261.21,3604,11.44,73356.5,-12.67,-15.67,-16.09,0,*58
1518804262.46,3605,11.44,73356.8,-12.67,-15.75,-16.17,0,*55
1518804263.72,3606,11.5,73366.0,-12.67,-15.85,-16.27,0,*5A
1518804264.95,3607,11.44,73360.0,-12.67,-15.81,-16.45,0,*5B
1518804266.19,3608,11.44,73362.8,-12.67,-15.85,-16.55,0,*51
1518804267.46,3609,11.44,73360.0,-12.67,-15.89,-16.69,0,*53
1518804268.67,3610,11.44,73362.8,-12.67,-15.99,-16.79,0,*5B
1518804269.87,3611,11.44,73360.0,-12.67,-15.99,-16.89,0,*55
1518804271.14,3612,11.44,73356.8,-12.67,-15.89,-17.03,0,*54
1518804272.4,3613,11.44,73354.3,-12.67,-16.13,-17.17,0,*50
1518804273.64,3614,11.44,73366.0,-12.67,-16.13,-17.49,0,*5C
1518804274.86,3615,11.44,73356.8,-12.67,-16.41,-17.69,0,*58
1518804276.12,3616,11.44,73358.0,-12.67,-16.31,-17.79,0,*5D
1518804277.34,3617,11.44,73358.0,-12.67,-16.41,-17.83,0,*5E
1518804278.58,3618,11.44,73356.8,-12.73,-16.55,-18.01,0,*54
1518804279.84,3619,11.44,73348.3,-12.69,-16.65,-17.93,0,*59
1518804281.08,3620,11.44,73360.0,-12.69,-16.75,-17.97,0,*56
1518804282.32,3621,11.5,73360.3,-12.69,-16.79,-17.97,0,*5B
1518804283.56,3622,11.44,73360.3,-12.69,-16.79,-17.97,0,*58
1518804284.79,3623,11.44,73352.3,-12.69,-16.97,-18.01,0,*59
1518804286.02,3624,11.44,73344.8,-12.73,-17.07,-18.17,0,*5A
1518804287.25,3625,11.44,73346.5,-12.73,-17.11,-18.11,0,*5A
1518804288.51,3626,11.44,73342.0,-12.73,-17.11,-17.97,0,*58
1518804289.77,3627,11.5,73342.3,-12.69,-17.03,-17.79,0,*51
1518804291.03,3628,11.44,73352.3,-12.69,-17.07,-17.79,0,*5A
1518804292.27,3629,11.44,73358.3,-12.73,-17.21,-17.83,0,*51
1518804293.5,3630,11.44,73352.0,-12.73,-17.21,-17.73,0,*56
1518804294.73,3631,11.44,73354.5,-12.73,-17.25,-17.73,0,*53
1518804295.96,3632,11.44,73356.5,-12.73,-17.25,-17.69,0,*5B
1518804297.2,3633,11.44,73346.5,-12.73,-17.35,-17.59,0,*58
1518804298.46,3634,11.44,73346.5,-12.73,-17.41,-17.41,0,*55
1518804299.72,3635,11.44,73352.0,-12.73,-17.25,-17.25,0,*54
1518804301.0,3636,11.44,73354.3,-12.75,-17.25,-17.11,0,*56
1518804302.27,3637,11.44,73358.3,-12.75,-17.07,-16.79,0,*58
1518804303.52,3638,11.5,73356.0,-12.77,-17.03,-16.69,0,*50
1518804304.73,3639,11.44,73360.8,-12.77,-16.97,-16.55,0,*52
1518804306.01,3640,11.44,73362.0,-12.75,-16.69,-16.23,0,*5E
1518804307.31,3641,11.44,73362.0,-12.75,-16.65,-16.09,0,*5B
1518804308.55,3642,11.44,73360.5,-12.75,-16.55,-15.95,0,*5D
1518804309.81,3643,11.5,73360.0,-12.75,-16.51,-15.75,0,*56
1518804311.04,3644,11.44,73362.0,-12.77,-16.37,-15.57,0,*53
1518804312.27,3645,11.44,73362.3,-12.77,-16.13,-15.67,0,*57
1518804313.52,3646,11.44,73360.8,-12.75,-15.95,-15.49,0,*57
1518804314.8,3647,11.44,73362.0,-12.75,-15.81,-15.43,0,*59
1518804316.01,3648,11.44,73360.5,-12.77,-15.99,-15.49,0,*57
1518804317.25,3649,11.44,73362.0,-12.75,-15.75,-15.29,0,*50
1518804318.51,3650,11.44,73360.5,-12.77,-15.81,-15.35,0,*5C
1518804319.74,3651,11.44,73358.8,-12.77,-15.57,-15.11,0,*50
1518804320.97,3652,11.44,73360.5,-12.77,-15.49,-14.93,0,*57
1518804322.23,3653,11.44,73360.3,-12.77,-15.39,-14.79,0,*55
1518804323.46,3654,11.5,73364.5,-12.77,-15.35,-14.65,0,*53
1518804324.67,3655,11.44,73360.5,-12.77,-15.11,-14.61,0,*50
1518804325.94,3656,11.5,73362.0,-12.75,-15.01,-14.47,0,*54
1518804327.2,3657,11.44,73362.5,-12.77,-14.93,-14.51,0,*5A
1518804328.45,3658,11.44,73356.8,-12.77,-14.79,-14.51,0,*51
1518804329.7,3659,11.44,73354.0,-12.75,-14.61,-14.43,0,*58
1518804330.91,3660,11.44,73356.8,-12.77,-14.65,-14.37,0,*57
1518804332.17,3661,11.44,73354.0,-12.75,-14.47,-14.33,0,*50
1518804333.46,3662,11.44,73352.3,-12.75,-14.47,-14.43,0,*54
1518804334.72,3663,11.44,73350.0,-12.75,-14.47,-14.33,0,*52
1518804335.99,3664,11.44,73356.3,-12.77,-14.47,-14.47,0,*54
1518804337.27,3665,11.44,73356.3,-12.75,-14.43,-14.43,0,*57
1518804338.56,3666,11.44,73358.5,-12.75,-14.43,-14.55,0,*53
1518804339.84,3667,11.44,73356.0,-12.75,-14.43,-14.55,0,*52
1518804341.08,3668,11.44,73358.3,-12.75,-14.33,-14.61,0,*5D
1518804342.28,3669,11.44,73362.8,-12.77,-14.37,-14.69,0,*52
1518804343.57,3670,11.44,73358.8,-12.75,-14.43,-14.93,0,*5E
1518804344.85,3671,11.44,73356.5,-12.75,-14.43,-15.21,0,*57
1518804346.12,3672,11.5,73366.0,-12.77,-14.47,-15.39,0,*5B
1518804347.39,3673,11.44,73360.5,-12.75,-14.43,-15.49,0,*5B
1518804348.68,3674,11.44,73360.5,-12.75,-14.55,-15.89,0,*57
1518804349.93,3675,11.44,73360.5,-12.75,-14.65,-16.23,0,*56
1518804351.19,3676,11.44,73362.3,-12.75,-14.79,-16.79,0,*57
1518804352.44,3677,11.44,73360.8,-12.73,-15.21,-17.41,0,*56
1518804353.69,3678,11.44,73360.0,-12.77,-15.35,-17.93,0,*57
1518804354.93,3679,11.44,73360.0,-12.73,-15.75,-18.31,0,*51
1518804356.19,3680,11.44,73358.5,-12.75,-16.09,-18.79,0,*55
1518804357.41,3681,11.44,73358.5,-12.75,-16.37,-19.07,0,*51
1518804358.67,3682,11.44,73356.0,-12.75,-16.79,-19.41,0,*5A
1518804359.93,3683,11.44,73360.8,-12.77,-17.17,-19.85,0,*58
1518804361.17,3684,11.44,73358.8,-12.77,-17.59,-20.05,0,*57
1518804362.41,3685,11.44,73356.0,-12.77,-18.01,-20.39,0,*5B
1518804363.64,3686,11.44,73362.3,-12.75,-18.25,-20.59,0,*5A
1518804364.88,3687,11.44,73362.0,-12.77,-18.55,-20.93,0,*58
1518804366.08,3688,11.5,73366.5,-12.77,-18.83,-21.09,0,*5E
1518804367.29,3689,11.44,73364.0,-12.77,-18.99,-21.09,0,*54
1518804368.52,3690,11.44,73356.0,-12.77,-19.41,-21.13,0,*53
1518804369.73,3691,11.44,73358.3,-12.81,-19.47,-21.09,0,*56
1518804370.94,3692,11.44,73360.0,-12.81,-19.71,-21.13,0,*5B
1518804372.14,3693,11.44,73358.0,-12.81,-20.05,-21.13,0,*53
1518804373.4,3694,11.44,73360.5,-12.81,-20.15,-20.99,0,*56
1518804374.63,3695,11.44,73354.3,-12.85,-20.19,-20.43,0,*58
1518804375.84,3696,11.5,73358.5,-12.85,-19.91,-20.05,0,*53
1518804377.1,3697,11.44,73356.0,-12.87,-19.81,-19.99,0,*5E
1518804378.31,3698,11.44,73352.0,-12.85,-19.95,-19.95,0,*5A
1518804379.57,3699,11.44,73352.5,-12.87,-19.99,-19.81,0,*50
1518804380.83,3700,11.44,73356.3,-12.87,-19.85,-19.51,0,*51
1518804382.11,3701,11.44,73352.8,-12.87,-19.85,-19.23,0,*55
1518804383.4,3702,11.44,73350.3,-12.87,-19.65,-19.23,0,*58
1518804384.66,3703,11.44,73352.8,-12.87,-19.37,-18.93,0,*54
1518804385.9,3704,11.44,73352.8,-12.87,-19.17,-18.79,0,*55
1518804387.13,3705,11.44,73358.8,-12.87,-19.03,-18.65,0,*5C
1518804388.37,3706,11.44,73358.5,-12.87,-18.73,-18.41,0,*5F
1518804389.6,3707,11.44,73362.0,-12.87,-18.49,-18.25,0,*55
1518804390.86,3708,11.44,73354.3,-12.85,-18.31,-17.93,0,*55
1518804392.07,3709,11.44,73356.0,-12.89,-17.69,-17.69,0,*5F
1518804393.28,3710,11.44,73356.0,-12.89,-17.49,-17.69,0,*55
1518804394.49,3711,11.44,73352.5,-12.89,-17.35,-17.69,0,*5F
1518804395.73,3712,11.44,73348.5,-12.89,-17.11,-17.83,0,*5E
1518804396.97,3713,11.44,73354.8,-12.89,-17.11,-18.11,0,*5B
1518804398.18,3714,11.44,73354.8,-12.89,-17.35,-18.49,0,*57
1518804399.43,3715,11.44,73354.3,-12.91,-17.59,-18.79,0,*56
1518804400.63,3716,11.44,73354.8,-12.89,-17.73,-19.03,0,*58
1518804401.86,3717,11.44,73352.8,-12.91,-17.87,-19.07,0,*5F
1518804403.06,3718,11.44,73354.0,-12.89,-18.11,-19.07,0,*59
1518804404.35,3719,11.44,73356.5,-12.91,-18.31,-18.93,0,*5F
1518804405.56,3720,11.5,73356.8,-12.89,-18.41,-18.65,0,*52
1518804406.77,3721,11.44,73358.3,-12.89,-18.41,-18.25,0,*57
1518804408.03,3722,11.44,73356.3,-12.91,-18.31,-18.17,0,*5B
1518804409.29,3723,11.5,73362.3,-12.91,-18.07,-18.01,0,*58
1518804410.58,3724,11.44,73358.0,-12.91,-18.01,-17.79,0,*59
1518804411.84,3725,11.44,73360.0,-12.91,-17.87,-17.59,0,*5B
1518804413.13,3726,11.44,73356.8,-12.91,-17.63,-17.45,0,*5F
1518804414.41,3727,11.44,73360.3,-12.91,-17.63,-17.55,0,*5F
1518804415.69,3728,11.44,73360.3,-12.91,-17.63,-17.55,0,*50
1518804416.95,3729,11.44,73358.5,-12.89,-17.59,-17.59,0,*5D
1518804418.24,3730,11.44,73356.8,-12.91,-17.55,-17.59,0,*50
1518804419.53,3731,11.44,73354.5,-12.91,-17.45,-17.45,0,*5D
1518804420.82,3732,11.44,73354.8,-12.91,-17.45,-17.55,0,*5F
1518804422.11,3733,11.44,73352.5,-12.91,-17.41,-17.45,0,*5B
1518804423.38,3734,11.44,73350.8,-12.95,-17.45,-17.49,0,*50
1518804424.68,3735,11.44,73352.0,-12.91,-17.41,-17.45,0,*5D
1518804425.96,3736,11.44,73354.5,-12.91,-17.25,-17.45,0,*5C
1518804427.23,3737,11.44,73358.3,-12.95,-17.31,-17.45,0,*5C
1518804428.52,3738,11.44,73352.3,-12.91,-17.25,-17.41,0,*56
1518804429.78,3739,11.44,73348.5,-12.91,-17.31,-17.41,0,*52
1518804431.04,3740,11.44,73350.8,-12.91,-17.31,-17.55,0,*59
1518804432.29,3741,11.44,73352.0,-12.91,-17.31,-17.41,0,*5D
1518804433.57,3742,11.44,73350.3,-12.95,-17.45,-17.35,0,*5A
1518804434.82,3743,11.44,73348.0,-12.95,-17.35,-17.31,0,*58
1518804436.07,3744,11.44,73348.0,-12.91,-17.31,-17.25,0,*5A
1518804437.33,3745,11.44,73348.5,-12.91,-17.31,-17.03,0,*5F
1518804438.56,3746,11.44,73354.0,-12.91,-17.31,-16.97,0,*50
1518804439.85,3747,11.44,73352.8,-12.91,-17.25,-16.69,0,*55
1518804441.12,3748,11.44,73354.5,-12.91,-17.17,-16.41,0,*51
1518804442.39,3749,11.44,73352.0,-12.95,-17.17,-16.41,0,*54
1518804443.68,3750,11.44,73352.5,-12.91,-17.11,-16.23,0,*5A
1518804444.91,3751,11.44,73354.8,-12.91,-16.97,-15.99,0,*56
1518804446.16,3752,11.44,73354.5,-12.95,-16.79,-15.75,0,*53
1518804447.42,3753,11.44,73354.3,-12.91,-16.69,-15.63,0,*50
1518804448.66,3754,11.44,73352.0,-12.91,-16.55,-15.63,0,*58
1518804449.9,3755,11.44,73352.0,-12.91,-16.41,-15.63,0,*5C
1518804451.19,3756,11.44,73354.3,-12.91,-16.27,-15.35,0,*5C
1518804452.48,3757,11.44,73352.0,-12.91,-16.09,-15.21,0,*54
1518804453.72,3758,11.44,73350.8,-12.91,-15.95,-15.07,0,*59
1518804455.01,3759,11.44,73348.0,-12.91,-15.85,-14.93,0,*55
1518804456.25,3760,11.44,73348.8,-12.95,-15.71,-15.11,0,*5B
1518804457.52,3761,11.44,73348.8,-12.95,-15.67,-15.01,0,*5C
1518804458.78,3762,11.44,73350.3,-12.91,-15.49,-14.97,0,*59
1518804460.07,3763,11.44,73350.3,-12.91,-15.35,-14.97,0,*53
1518804461.36,3764,11.44,73350.3,-12.95,-15.39,-15.01,0,*52
1518804462.64,3765,11.44,73348.8,-12.91,-15.21,-14.97,0,*50
1518804463.92,3766,11.44,73350.8,-12.91,-15.21,-14.97,0,*53
1518804465.18,3767,11.44,73346.8,-12.91,-15.21,-15.11,0,*5D
1518804466.41,3768,11.44,73346.8,-12.91,-15.11,-15.11,0,*51
1518804467.67,3769,11.44,73346.5,-12.91,-15.21,-15.07,0,*54
1518804468.92,3770,11.44,73348.3,-12.91,-15.21,-15.11,0,*5B
1518804470.16,3771,11.44,73350.5,-12.91,-15.25,-15.11,0,*5E
1518804471.42,3772,11.44,73346.8,-12.91,-15.25,-15.21,0,*5E
1518804472.71,3773,11.44,73350.0,-12.91,-15.35,-15.21,0,*5E
1518804473.97,3774,11.44,73346.3,-12.91,-15.35,-15.11,0,*5A
1518804475.23,3775,11.44,73348.3,-12.91,-15.35,-15.11,0,*5B
1518804476.49,3776,11.44,73350.8,-12.91,-15.35,-15.07,0,*5F
1518804477.76,3777,11.44,73352.0,-12.91,-15.35,-15.07,0,*5E
1518804479.02,3778,11.44,73346.8,-12.91,-15.35,-15.07,0,*51
1518804480.28,3779,11.44,73352.5,-12.91,-15.39,-15.07,0,*5C
1518804481.57,3780,11.44,73350.5,-12.91,-15.39,-14.97,0,*52
1518804482.83,3781,11.44,73350.8,-12.91,-15.25,-14.97,0,*5E
1518804484.1,3782,11.44,73350.8,-12.91,-15.35,-15.07,0,*54
1518804485.33,3783,11.44,73348.0,-12.91,-15.25,-15.07,0,*54
1518804486.61,3784,11.44,73350.5,-12.95,-15.15,-14.97,0,*5C
1518804487.87,3785,11.44,73350.3,-12.91,-15.07,-14.97,0,*5A
1518804489.15,3786,11.44,73350.3,-12.91,-14.97,-15.21,0,*5D
1518804490.41,3787,11.44,73348.0,-12.91,-15.07,-15.39,0,*5D
1518804491.67,3788,11.44,73348.3,-12.91,-14.97,-15.49,0,*5D
1518804492.91,3789,11.44,73350.0,-12.89,-14.93,-15.49,0,*51
1518804494.14,3790,11.44,73350.0,-12.91,-15.11,-15.67,0,*57
1518804495.37,3791,11.44,73350.3,-12.91,-15.11,-15.71,0,*51
1518804496.61,3792,11.44,73348.5,-12.91,-15.49,-15.95,0,*55
1518804497.85,3793,11.44,73344.8,-12.91,-15.53,-15.95,0,*5F
1518804499.09,3794,11.44,73350.8,-12.91,-15.63,-15.95,0,*5B
1518804500.32,3795,11.44,73352.0,-12.91,-15.67,-15.67,0,*53